Dewpoint
67 68 67 67 69 71 71 71 72 73 73 71 69 69 69 68 67 67 68 69 70 72 73 73 72 73 72 72 73 72 71 70 69 71 72 73 72 73 73 74 73 73 72
68 66 66 67 68 69 72 72 73 72 73 71 70 70 70 68 67 68 69 70 70 72 73 73 73 72 73 73 72 72 71 71 71 70 72 72 72 73 73 73 73 72 72
65 65 66 66 67 69 73 74 73 73 73 73 71 70 69 67 66 68 70 69 70 70 72 73 73 72 72 72 72 72 72 71 71 70 70 72 72 73 73 72 72 73 72
64 64 64 65 66 68 70 73 75 75 74 73 72 71 70 70 68 68 68 69 70 70 71 72 73 73 72 72 72 72 73 71 70 70 70 71 72 73 73 72 71 72 71
63 64 64 66 67 69 71 74 75 75 75 74 73 72 71 69 68 68 68 68 68 68 69 70 71 71 71 71 73 73 73 72 71 70 70 71 71 70 71 72 72 72 72
67 67 68 68 69 71 73 73 73 75 74 72 71 71 70 67 65 66 68 68 68 68 68 68 67 68 70 69 69 70 72 73 71 70 71 71 71 72 72 71 72 71 70
71 72 73 73 73 73 73 72 72 72 71 71 70 68 67 67 64 65 66 67 68 68 66 65 65 64 68 69 69 67 68 68 69 72 70 71 71 72 73 72 72 71 71
70 69 70 71 71 71 71 71 71 72 71 71 71 71 70 70 65 65 67 68 66 64 63 64 66 66 67 67 69 70 71 73 71 70 71 72 73 74 74 74 73 73 73
65 65 65 66 66 66 67 69 70 70 69 69 68 68 67 66 62 62 64 63 62 62 64 64 64 64 63 64 67 70 71 70 68 66 67 66 65 65 70 73 71 71 70
64 65 65 65 65 65 66 66 68 68 68 68 68 69 67 68 63 61 62 62 60 59 61 61 60 62 61 61 67 70 68 67 70 68 69 70 69 70 66 72 74 72 72
65 64 64 64 65 66 66 65 66 65 65 64 64 65 67 67 67 60 59 63 61 60 59 59 61 61 59 58 59 70 70 68 65 65 66 67 67 69 71 72 74 73 72
63 62 62 62 62 64 64 64 64 63 62 61 62 62 64 66 64 63 59 59 62 61 62 64 66 60 59 57 59 62 61 62 67 65 65 64 64 64 66 69 71 73 75
61 60 60 61 62 63 62 61 61 61 61 60 61 60 60 62 65 61 60 60 60 61 64 64 61 57 56 58 58 60 60 65 67 67 66 66 65 66 68 69 71 72 72
60 60 60 59 59 59 59 60 60 59 60 60 60 60 59 60 61 63 65 66 63 64 64 66 64 62 61 63 64 65 65 66 66 67 67 69 69 68 68 70 71 70 70
60 59 59 58 58 58 59 58 58 59 58 58 59 59 59 58 59 58 59 63 63 61 59 64 64 64 63 64 65 65 66 66 66 67 67 68 69 70 70 71 71 70 68
59 58 57 56 56 57 57 57 54 53 52 50 50 53 57 54 51 50 48 47 48 48 58 61 63 64 64 64 65 66 66 66 66 67 68 68 68 69 69 70 70 69 68
57 56 56 55 56 57 57 57 57 56 52 50 49 48 47 49 48 47 46 45 45 48 55 56 59 61 61 62 64 64 64 66 68 68 68 68 68 68 67 68 68 67 66
57 53 56 56 57 57 57 57 56 55 53 53 51 51 50 47 46 45 45 44 52 49 54 55 56 58 60 61 62 64 66 67 67 67 68 68 68 68 67 67 67 66 66
56 56 57 57 57 55 55 55 53 53 52 52 53 51 51 47 46 45 44 52 54 55 55 56 57 59 60 62 63 64 65 65 66 67 67 67 67 68 67 66 66 59 62
57 57 55 54 53 52 52 51 50 50 50 50 50 51 53 54 55 55 53 53 53 54 56 57 58 59 59 61 62 63 64 65 65 67 67 67 67 68 67 66 66 64 64
52 53 53 53 51 51 50 50 50 49 49 49 49 50 47 50 51 52 53 56 55 55 56 57 58 59 60 61 62 64 64 64 66 66 66 66 67 66 66 67 67 66 66
53 52 51 50 49 49 48 48 48 48 48 48 48 49 46 50 51 51 53 54 58 58 58 60 60 60 60 61 62 62 63 64 64 65 66 66 66 66 66 65 64 64 65
50 49 49 48 48 48 48 48 48 48 48 48 48 48 48 50 51 51 52 54 56 60 61 60 60 61 62 63 64 63 62 63 64 64 64 64 65 66 65 65 65 64 63
49 48 48 48 48 48 48 48 48 47 48 49 49 50 50 51 51 51 52 53 55 57 62 62 62 62 61 62 62 63 64 65 65 65 65 66 65 63 65 65 64 64 62
49 48 47 47 47 47 47 48 48 48 48 49 49 50 52 51 51 52 52 54 54 55 58 58 59 58 58 57 55 55 51 42 52 53 65 65 64 63 62 63 62 60 58
48 49 48 48 47 47 47 47 47 48 48 47 48 48 48 51 51 52 53 53 53 55 53 51 51 50 49 49 47 41 34 34 41 38 55 61 60 57 56 55 53 52 52
Lifted_Index
-3 -4 -4 -4 -4 -5 -6 -7 -7 -7 -6 -6 -7 -7 -7 -6 -5 -3 -1 -0 -2 -4 -5 -5 -5 -5 -5 -5 -5 -4 -4 -4 -4 -5 -5 -5 -5 -5 -5 -5 -4 -4 -4
-3 -3 -4 -4 -4 -5 -6 -7 -7 -7 -7 -7 -7 -7 -7 -7 -6 -4 -2 -1 -2 -4 -5 -5 -5 -5 -5 -5 -5 -5 -4 -4 -4 -4 -5 -5 -5 -5 -5 -5 -5 -5 -5
-3 -3 -3 -3 -4 -5 -7 -7 -8 -8 -8 -8 -8 -8 -8 -7 -6 -4 -2 -1 -2 -3 -4 -5 -5 -5 -5 -5 -5 -5 -5 -5 -4 -4 -4 -5 -5 -6 -6 -5 -5 -5 -5
-1 -2 -3 -4 -5 -6 -7 -8 -8 -9 -9 -9 -9 -9 -9 -8 -7 -5 -3 -2 -2 -3 -4 -5 -5 -5 -4 -4 -5 -5 -5 -5 -5 -4 -4 -5 -5 -6 -6 -6 -5 -5 -5
-2 -3 -4 -5 -6 -6 -7 -8 -9 -9 -9 -10 -10 -10 -9 -8 -7 -5 -4 -4 -4 -4 -4 -4 -4 -3 -3 -4 -4 -5 -5 -5 -5 -4 -4 -5 -5 -6 -6 -6 -6 -5 -5
-4 -5 -6 -7 -7 -7 -8 -9 -9 -9 -10 -10 -10 -9 -8 -7 -6 -6 -6 -5 -5 -5 -4 -2 -1 -1 -2 -2 -3 -4 -4 -5 -5 -5 -4 -5 -5 -6 -6 -6 -6 -5 -5
-6 -6 -7 -7 -7 -7 -8 -8 -8 -9 -9 -9 -9 -8 -8 -7 -6 -6 -5 -5 -4 -3 -1 -0 0 -0 -1 -2 -2 -3 -3 -4 -5 -5 -4 -4 -5 -6 -6 -7 -6 -6 -5
-6 -6 -6 -6 -6 -6 -6 -6 -7 -8 -8 -8 -8 -8 -7 -7 -6 -5 -4 -2 -1 0 1 2 1 1 -0 -1 -2 -3 -3 -4 -4 -4 -3 -4 -5 -6 -7 -7 -7 -6 -6
-5 -5 -5 -4 -4 -4 -4 -4 -5 -6 -6 -6 -6 -6 -7 -7 -6 -5 -4 -1 1 3 3 3 3 1 0 -0 -1 -2 -3 -2 -2 -2 -2 -3 -4 -5 -6 -7 -7 -7 -6
-4 -3 -3 -2 -2 -2 -2 -2 -2 -3 -4 -4 -4 -4 -5 -5 -5 -5 -5 -3 -0 1 2 2 1 1 -0 -1 -1 -2 -3 -2 -2 -2 -1 -2 -3 -4 -5 -6 -6 -7 -7
-1 -0 1 1 1 1 1 1 0 0 -1 -1 -1 -1 -2 -2 -3 -3 -4 -4 -3 -2 -2 -2 -2 -2 -2 -2 -1 -2 -3 -3 -3 -3 -2 -2 -2 -3 -4 -5 -5 -6 -6
2 3 3 4 3 3 3 3 3 3 2 2 2 2 1 0 -0 -1 -1 -2 -3 -3 -3 -4 -4 -4 -3 -3 -2 -2 -3 -3 -3 -3 -3 -3 -2 -2 -3 -4 -4 -5 -5
3 4 4 4 4 4 4 4 4 4 4 4 4 3 3 2 2 1 0 -0 -1 -1 -2 -2 -3 -3 -3 -3 -2 -2 -3 -2 -2 -2 -3 -2 -2 -2 -3 -4 -4 -5 -5
3 4 4 4 4 4 5 5 5 4 4 4 4 4 4 3 3 2 2 1 1 1 1 0 -0 -1 -2 -2 -2 -2 -2 -2 -1 -1 -2 -2 -2 -3 -3 -4 -4 -5 -5
4 4 4 5 5 5 5 5 4 4 4 4 4 4 4 4 4 3 3 3 3 3 3 3 2 1 -0 -1 -1 -1 -2 -2 -1 -1 -1 -2 -2 -3 -3 -4 -4 -5 -5
5 5 6 6 6 6 5 5 4 4 4 5 4 4 4 4 4 4 4 4 4 5 5 4 3 2 1 1 0 -0 -1 -1 -2 -1 -1 -1 -2 -2 -3 -3 -3 -3 -4
6 6 7 6 6 5 5 5 5 5 5 6 6 5 5 5 5 5 5 5 5 5 5 5 4 3 2 2 1 0 -0 -1 -1 -1 -1 -1 -1 -2 -2 -2 -3 -3 -3
6 6 6 5 5 5 5 6 6 7 7 7 7 6 6 6 6 5 5 5 5 5 5 5 5 4 3 2 1 1 0 -0 -1 -1 -1 -2 -2 -2 -2 -2 -2 -2 -2
4 4 4 4 4 5 6 7 8 8 8 8 8 7 6 6 6 6 6 6 6 5 5 5 5 4 3 2 1 1 0 -1 -1 -1 -2 -2 -2 -2 -2 -2 -2 -2 -2
3 3 4 5 6 7 8 8 9 9 8 8 7 6 6 6 6 6 6 6 6 5 5 4 4 4 3 2 2 1 0 -1 -1 -2 -2 -3 -3 -3 -3 -3 -2 -2 -2
3 4 5 6 7 8 8 8 8 7 7 6 6 6 6 6 6 6 6 6 5 5 4 3 3 3 2 2 1 1 0 -1 -1 -2 -3 -3 -3 -4 -4 -3 -3 -3 -3
4 5 6 7 8 8 7 6 6 6 5 5 5 6 7 7 8 7 7 6 5 4 3 2 2 2 1 1 1 1 0 -0 -1 -2 -2 -3 -3 -4 -4 -4 -3 -3 -3
6 7 7 7 7 7 6 5 4 4 4 5 5 7 8 9 10 10 10 9 7 5 3 2 2 1 1 0 0 1 0 -0 -1 -1 -2 -3 -3 -4 -4 -4 -3 -3 -3
7 7 7 6 5 5 4 4 4 4 4 4 5 7 8 10 10 11 11 11 9 6 3 2 1 1 1 0 0 1 1 0 -1 -2 -2 -3 -3 -3 -4 -4 -3 -3 -3
7 6 5 5 4 3 3 3 3 3 3 4 5 6 8 8 9 10 11 10 9 6 4 3 1 0 0 0 0 1 1 0 -0 -1 -2 -3 -3 -3 -3 -3 -3 -3 -3
7 6 5 4 3 3 3 3 3 3 3 4 5 6 7 8 8 9 10 10 8 7 5 3 1 0 0 0 1 1 1 0 -0 -1 -2 -2 -3 -3 -3 -3 -3 -2 -2